"Pseudo-MPEC" for P21OtaB

Created 2023 Nov 30 8:22:06 UT using Find_Orb

Click here for an explanation of pseudo-MPECs

 
 Astrometry: 
     P21OtaB* C2023 11 18a:T!YF2mIKFJ8OAstrometry)=lOY/JO$RhW8+ESredacted;y%.F52
     P21OtaB  C2023 11 18_.fRWkS\]\e!Nclick;48?=pLC^)5C(iB.QvG_Sp-,RkCrFqg4c,F52
     P21OtaB  C2023 11 18QZXtr;cxR8`)i-B+`9heremGE^D=^o*rYkI9#wes`[qformtWv=sF52
     P21OtaB  C2023 11 18HX2;Y1S#O7s3cRXfE6c0/$lq@7G]U@_3explanation,!G.JGw4cF52

Station data:
(F52) Pan-STARRS 2, Haleakala  (N20.707382 W156.255910)  US/Hawaii.
   Observers J. Bulger, T. Dukes, T. Lowe, A. Schultz, M. Willman. Measurers
   K. Chambers, S. Chastel, T. de Boer, L. Denneau, J. Fairlamb, H.
   Flewelling, M. Huber, C.-C. Lin, E. Magnier, Y. Ramanjooloo, R. Wainscoat,
   R. Weryk. 1.8-m Ritchey-Chrétien + CCD.

Orbital elements:  P21OtaB
   Perihelion 2024 Mar 29.88440 +/- 188 TT = 21:13:32 (JD 2460399.38440)
Epoch 2023 Nov 19.0 TT = JDT 2460267.5   Earth MOID: 0.2926      AutoNEOCP
M 284.16555459 +/- 70               (J2000 ecliptic)
n   0.57500692 +/- 0.586            Peri.  339.11450 +/- 70
a   1.43225605 +/- 0.974            Node   277.51986 +/- 15
e   0.8462842 +/- 0.246             Incl.   46.11930 +/- 45
P   1.71/626.07d           H 18.75  G  0.15   U 12.4  SR
q 0.22016025 +/- 1.19    Q 2.64435184 +/- 45.5
From 4 observations 2023 Nov. 18 (53.2 min); mean residual 0".02
Residuals in arcseconds: 
231118 F52  .02-  .01-    231118 F52  .02+  .02-    
231118 F52  .02+  .02+    231118 F52  .02-  .00     

Ephemerides (geocentric):
Date (UTC) HH   RA             Dec           delta  r     elong  mag " sig PA
---- --------  ------------   ------------  ------ ------ -----  --- --------
2023 11 30 08  08 19 55.831   +19 00 42.50  1.1788 1.9197 124.7 21.7  48d 104
2023 11 30 09  08 19 53.855   +19 00 17.17  1.1779 1.9194 124.7 21.7  48d 104
2023 11 30 10  08 19 51.872   +18 59 51.82  1.1771 1.9191 124.8 21.7  48d 103
2023 11 30 11  08 19 49.881   +18 59 26.45  1.1763 1.9187 124.8 21.7  48d 103
2023 11 30 12  08 19 47.883   +18 59 01.05  1.1754 1.9184 124.9 21.7  48d 103
2023 11 30 13  08 19 45.878   +18 58 35.63  1.1746 1.9180 124.9 21.7  48d 103
2023 11 30 14  08 19 43.866   +18 58 10.19  1.1738 1.9177 125.0 21.7  48d 103
2023 11 30 15  08 19 41.847   +18 57 44.73  1.1729 1.9173 125.0 21.7  48d 103
2023 11 30 16  08 19 39.820   +18 57 19.25  1.1721 1.9170 125.1 21.7  48d 103
2023 11 30 17  08 19 37.787   +18 56 53.74  1.1713 1.9166 125.1 21.7  48d 103
2023 11 30 18  08 19 35.746   +18 56 28.21  1.1704 1.9163 125.2 21.7  48d 103
2023 11 30 19  08 19 33.698   +18 56 02.66  1.1696 1.9159 125.2 21.7  48d 102
2023 11 30 20  08 19 31.642   +18 55 37.08  1.1688 1.9156 125.3 21.7  48d 102
2023 11 30 21  08 19 29.579   +18 55 11.49  1.1679 1.9152 125.3 21.6  48d 102
2023 11 30 22  08 19 27.510   +18 54 45.87  1.1671 1.9149 125.4 21.6  48d 102
2023 11 30 23  08 19 25.432   +18 54 20.23  1.1663 1.9145 125.4 21.6  49d 102
2023 12 01 00  08 19 23.348   +18 53 54.56  1.1654 1.9142 125.5 21.6  49d 102
2023 12 01 01  08 19 21.256   +18 53 28.87  1.1646 1.9138 125.5 21.6  49d 102
2023 12 01 02  08 19 19.157   +18 53 03.16  1.1638 1.9135 125.6 21.6  49d 102
2023 12 01 03  08 19 17.050   +18 52 37.43  1.1629 1.9131 125.6 21.6  49d 102
2023 12 01 04  08 19 14.937   +18 52 11.68  1.1621 1.9128 125.7 21.6  49d 102
2023 12 01 05  08 19 12.815   +18 51 45.90  1.1613 1.9125 125.7 21.6  49d 102
2023 12 01 06  08 19 10.687   +18 51 20.09  1.1604 1.9121 125.7 21.6  49d 102
2023 12 01 07  08 19 08.551   +18 50 54.27  1.1596 1.9118 125.8 21.6  49d 102
2023 12 01 08  08 19 06.408   +18 50 28.42  1.1588 1.9114 125.8 21.6  49d 102
2023 12 01 09  08 19 04.257   +18 50 02.55  1.1579 1.9111 125.9 21.6  49d 102
2023 12 01 10  08 19 02.099   +18 49 36.65  1.1571 1.9107 125.9 21.6  49d 102
2023 12 01 11  08 18 59.933   +18 49 10.74  1.1563 1.9104 126.0 21.6  49d 101
2023 12 01 12  08 18 57.760   +18 48 44.79  1.1554 1.9100 126.0 21.6  49d 101
2023 12 01 13  08 18 55.580   +18 48 18.83  1.1546 1.9097 126.1 21.6  49d 101
2023 12 01 14  08 18 53.392   +18 47 52.84  1.1538 1.9093 126.1 21.6  49d 101
2023 12 01 15  08 18 51.197   +18 47 26.83  1.1529 1.9090 126.2 21.6  49d 101
2023 12 01 16  08 18 48.994   +18 47 00.79  1.1521 1.9086 126.2 21.6  49d 101
2023 12 01 17  08 18 46.784   +18 46 34.73  1.1513 1.9083 126.3 21.6  49d 101
2023 12 01 18  08 18 44.566   +18 46 08.65  1.1505 1.9079 126.3 21.6  49d 101
2023 12 01 19  08 18 42.341   +18 45 42.55  1.1496 1.9076 126.4 21.6  49d 101
2023 12 01 20  08 18 40.108   +18 45 16.42  1.1488 1.9072 126.4 21.6  49d 101
2023 12 01 21  08 18 37.868   +18 44 50.26  1.1480 1.9069 126.5 21.6  49d 101
2023 12 01 22  08 18 35.620   +18 44 24.08  1.1471 1.9065 126.5 21.6  49d 101
2023 12 01 23  08 18 33.364   +18 43 57.88  1.1463 1.9062 126.6 21.6  49d 101
2023 12 02 00  08 18 31.101   +18 43 31.65  1.1455 1.9058 126.6 21.6  50d 101
2023 12 02 01  08 18 28.831   +18 43 05.40  1.1447 1.9055 126.7 21.6  50d 101
2023 12 02 02  08 18 26.553   +18 42 39.13  1.1438 1.9051 126.7 21.6  50d 101
2023 12 02 03  08 18 24.267   +18 42 12.83  1.1430 1.9048 126.8 21.6  50d 102
2023 12 02 04  08 18 21.973   +18 41 46.51  1.1422 1.9044 126.8 21.6  50d 102
2023 12 02 05  08 18 19.672   +18 41 20.16  1.1413 1.9041 126.9 21.6  50d 102
2023 12 02 06  08 18 17.364   +18 40 53.79  1.1405 1.9037 126.9 21.6  50d 102
2023 12 02 07  08 18 15.047   +18 40 27.39  1.1397 1.9034 127.0 21.6  50d 102